www.pogodaiklimat.ru

Погода и климат >> Архив погоды >> Россия >> Алтай >> Усть-Кан


ПОГОДА в Усть-Кане

  • Прогноз погоды в Усть-Кане
  • Монитор погоды в Усть-Кане

АРХИВ ПОГОДЫ в Усть-Кане

Время (UTC), дата Ветер
(напр.,м/с)
 
Видим.   Явления Облачность Т
(С)
Тd
(С)
f
(%)
Тe
(С)
Тes
(С)
Комфортность P
(гПа)
Po
(гПа)
Тmin
(С)
Tmax
(С)
R
(мм)
R24
(мм)
S
(см)
00 14.03 СВ 2 50 км ясно -7.2 -10.7 76 -12 -12 907.5 -7.6 1
03 14.03 СВ 1 50 км ясно -5.8 -10.4 70 -8 -4 1036.3 909.3 -8.5
06 14.03 В 2 50 км 2 балла +1.7 -9.5 43 -1 +6 1031.2 908.0
09 14.03 В 1 50 км 6 баллов +7.2 -9.6 29 +7 +9 1027.2 906.7
12 14.03 ЮЗ 1 50 км 8/0
[Ac lent]
+3.9 -7.1 44 +3 +3 904.6 +8.1
15 14.03 В 1 50 км ясно -1.1 -7.0 64 -3 -3 1029.4 905.3
18 14.03 штиль 0 50 км ясно -4.7 -7.9 78 -6 -6 1029.7 904.0
21 14.03 штиль 0 50 км ясно -6.4 -9.3 80 -7 -7 1030.6 904.0
00 15.03 штиль 0 50 км ясно -8.6 -10.7 85 -9 -9 902.3 -8.7 <0.5
03 15.03 СВ 1 50 км ясно -5.0 -9.3 72 -7 -3 1028.4 902.7 -9.1
06 15.03 СВ 2 50 км ясно +4.6 -7.2 42 +3 +11 опасность
простуды
1020.7 900.0
09 15.03 Ю 3 50 км ясно +10.7 -16.6 13 +10 +14 1016.6 898.7
12 15.03 ЮЗ 2
{11}
50 км 4/0
[Ac lent]
+7.0 -12.8 23 +6 +6 898.2 +10.9
15 15.03 Ю 1 50 км 2 балла +0.9 -10.9 41 -0 -0 1022.5 900.0
18 15.03 Ю 1 50 км 2 балла -0.4 -11.7 42 -2 -2 1021.6 898.7
21 15.03 Ю 2 50 км 4 балла -0.2 -12.5 39 -3 -3 1019.9 897.3
00 16.03 СВ 2 50 км 8/8 1000 м
[Sc]
+0.9 -10.7 42 -2 -2 896.2 -1.5 <0.5
03 16.03 Ю 2 50 км 7 баллов +4.8 -10.9 31 +3 +4 1016.1 896.0
06 16.03 ЮВ 5
{10}
20 км слаб. ливневой снег 10/10 600 м
[Cb cap]
+2.8 -1.4 74 -2 -2 895.5
09 16.03 ЮВ 5 20 км слаб. ливневой дождь со снегом 10 баллов +3.0 -0.1 80 -2 -2 1016.8 896.0
12 16.03 З 1 50 км {ливн. осадки} 8/8 600 м
[Cb cap]
+2.1 -2.0 74 +1 +1 895.5 +7.8 0.0
15 16.03 С 2 50 км 6 баллов +0.9 -5.3 63 -2 -2 1019.3 897.3
18 16.03 З 1 50 км ясно -1.3 -7.2 64 -3 -3 1018.9 896.0
21 16.03 ЮЗ 1 50 км ясно -3.6 -8.5 69 -6 -6 1020.0 896.0
00 17.03 З 3 50 км ясно -7.1 -9.6 82 -13 -13 895.4 -7.1 <0.5
03 17.03 З 4 50 км ясно -6.7 -9.3 82 -13 -11 1021.6 896.0 -8.0
06 17.03 СЗ 4 50 км ясно +0.5 -14.7 31 -4 +2 1016.7 894.7
09 17.03 З 7 50 км ясно -0.5 -12.7 39 -7 -5 1017.1 894.7
12 17.03 СЗ 4
{13}
50 км 4/0
[Ac lent Ci fib]
-6.5 -12.2 64 -13 -13 1023.0 897.3 +1.7
15 17.03 СЗ 3 50 км 7 баллов -8.8 -14.4 64 -14 -14 1025.8 898.7
18 17.03 З 2 10 км слаб. ливневой снег 10/10 600 м
[Cb cap]
-9.9 -12.7 80 -14 -14 1027.8 900.0
21 17.03 С 1 10 км слаб. ливневой снег 10 баллов -10.8 -13.6 80 -13 -13 1028.3 900.0
00 18.03 СВ 1 50 км {ливн. осадки} 6/6 600 м
[Cb calv]
-12.4 -16.4 72 -15 -15 901.5 -12.4 0.6 1
03 18.03 СВ 2 50 км 7 баллов -10.6 -16.8 60 -15 -14 1032.8 904.0 -13.2
06 18.03 В 1 50 км 6 баллов -8.2 -17.2 48 -10 -6 1033.0 905.3
09 18.03 С 2 50 км 2 балла -5.4 -15.7 44 -9 -5 1030.1 904.0
12 18.03 С 2 50 км ясно -5.8 -15.2 47 -10 -9 904.3 -4.8
15 18.03 ЮЗ 2 50 км ясно -10.5 -16.7 60 -15 -15 1035.8 906.7
18 18.03 ЮЗ 2 50 км ясно -12.9 -18.1 65 -18 -18 1035.5 905.3
21 18.03 ЮЗ 1 50 км ясно -15.2 -18.9 73 -18 -18 1036.7 905.3
00 19.03 Ю 1 50 км ясно -16.4 -19.4 78 -19 -19 904.5 -16.4 <0.5
03 19.03 В 1 50 км ясно -12.5 -17.0 69 -15 -10 1035.2 905.3 -16.8
06 19.03 В 2 50 км 4 балла -5.7 -13.3 55 -10 -4 1030.2 904.0
09 19.03 В 1 50 км 4 балла +1.0 -22.0 16 +1 +4 1025.6 902.7
12 19.03 С 2 50 км 9/0
[Ac lent Ci fib]
+0.3 -17.6 25 -2 -2 901.5 +1.7
15 19.03 СВ 2 50 км 6 баллов -4.0 -12.9 50 -8 -8 1029.4 904.0
18 19.03 З 1 50 км 6 баллов -7.6 -13.4 63 -10 -10 1032.7 905.3
21 19.03 ЮЗ 2 50 км 4 балла -9.2 -14.6 65 -14 -14 1033.5 905.3
00 20.03 ЮЗ 2 50 км ясно -10.8 -15.8 67 -15 -15 905.3 -10.9 <0.5
03 20.03 В 1 50 км ясно -7.6 -13.2 64 -10 -5 1034.3 906.7 -11.2
06 20.03 СВ 2 50 км ясно -2.3 -15.3 36 -5 +4 1030.1 905.3
09 20.03 СВ 1 50 км ясно +1.3 -12.8 34 +1 +7 1028.3 905.3
12 20.03 С 3 50 км ясно -0.1 -13.2 37 -4 -4 904.3 +2.2
15 20.03 ЮЗ 2 50 км ясно -4.9 -13.0 53 -9 -9 1032.9 906.7
18 20.03 ЮЗ 2 50 км ясно -7.8 -13.8 62 -12 -12 1034.4 906.7

 

Местоположение метеостанции Усть-Кан (Алтай, Россия): широта 50.93 долгота 84.75 высота над уровнем моря 1037 м.

В архиве по умолчанию представлена погода в Усть-Кане за последнюю неделю. Архивные данные за месяц целиком и за предыдущие месяцы, начиная с января 2011 года, Вы можете получить, выбрав интересующий диапазон дат из раскрывающегося списка и нажав кнопку "Ввод!".


*Определитесь, кто Вы:
робот инопланетянин человек

Внимание! Время в таблицах - всемирное. Для получения местного времени необходимо прибавить поправку, которая равна 7 ч.

Смотрите также архив погоды в соседних городах и на ближайших метеорологических станциях:

Погода в Семинском перевале (Алтай, Россия) (15 км)
Погода в Шебалино (Алтай, Россия) (77 км)
Погода в Солонешном (Алтайский край, Россия) (83 км)
Погода в Усть-Коксе (Алтай, Россия) (96 км)
Погода в Чарышском (Алтайский край, Россия) (96 км)
Погода в Онгудае (Алтай, Россия) (99 км)
Погода в Чемале (Алтай, Россия) (102 км)
Погода в Риддере (Восточно-Казахстанская область, Казахстан) (108 км)
Погода в Белокурихе (Алтайский край, Россия) (118 км)
Погода в Катанде (Алтай, Россия) (132 км)

Пояснения к столбцам:

Ветер - указаны скорость ветра в м/с - средняя за 10 мин, порывы в срок и между сроками (в фигурных скобках) и направление, откуда дует ветер: С - северный, СВ - северо-восточный, В - восточный, ЮВ - юго-восточный, Ю - южный, ЮЗ - юго-западный, З - западный, СЗ - северо-западный.
Видимость - горизонтальная дальность видимости в метрах или километрах. При видимости от 1 до 10 км при отсутствии осадков обычно наблюдается дымка, при ухудшении видимости до 1 км и менее - туман. В сухую погоду видимость может ухудшаться дымом, пылью или мглою.
Явления - указаны атмосферные явления, наблюдавшиеся в срок или в последний час перед сроком; фигурными скобками обозначены явления, наблюдавшиеся между сроками (за 1-3 часа до срока); квадратными скобками обозначены град или гололедные отложения с указанием их диаметра в мм.
Облачность - указаны через наклонную черту общая и нижняя облачность в баллах и высота нижней границы облаков в метрах; квадратными скобками обозначены формы облаков: Ci - перистые, Cs - перисто-слоистые, Cc - перисто-кучевые, Ac - высококучевые, As - высокослоистые, Sc - слоисто-кучевые, Ns - слоисто-дождевые, Cu - кучевые, Cb - кучево-дождевые. Подробнее классификацию облаков см. в Атласе облаков (PDF).
T - Температура воздуха - температура, измеренная на высоте 2 м над землей.
Td - Температура точки росы - температура, при понижении до которой содержащийся в воздухе водяной пар достигнет насыщения.
f - Относительная влажность воздуха - влажноcть воздуха, измеренная на высоте 2 м над землей.
Te - Эффективная температура - температура, которую ощущает одетый по сезону человек в тени. Характеристика душности погоды. При расчете учитывается влияние влажности воздуха и скорости ветра на теплоощущения человека.
Tes - Эффективная температура на солнце - температура, которую ощущает человек, с поправкой на солнечный нагрев. Характеристика знойности погоды. Зависит от высоты солнца над горизонтом, облачности и скорости ветра. Ночью, в пасмурную погоду, а также при ветре 12 м/с и более поправка равна нулю.
P - Атмосферное давление - приведенное к уровню моря атмосферное давление.
Po - Атмосферное давление - измеренное на уровне метеостанции атмосферное давление.
Tmin - Минимальная температура - минимум температуры воздуха на высоте 2 м над землей.
Tmax - Максимальная температура - максимум температуры воздуха на высоте 2 м над землей.
R - Количество осадков - Количество выпавших осадков за период времени, мм. При наведении курсора мыши на число - период времени, за который выпало указанное количество осадков.
R24 - Количество осадков - Количество выпавших осадков за 24 часа, мм.
S - Снежный покров - Высота снежного покрова, см. При наведении курсора мыши на число - состояние снежного покрова и степень покрытия местности в баллах.